Weather in Sosnovyy Bor

Russia / Irkutsk Oblast     52°39′28″N   104°30′14″E
temp.,
°C
wind,
m/s
gust,
m/s
humid.,
%
clouds,
%
prec.,
mm/h
press.,
hPa
HPBL,
m
17 august, wed
wed1723:00+11nne347466 0.1 100779
02:00+9n228851 0.4 101025
05:00+9nne248633 0.1 1011101
08:00+10wnw1482100 0.1 1012268
11:00+12wnw2468100 0.0 1012775
14:00+14nw345560 0.0 10111059
17:00+17wnw234480 0.0 10091854
20:00+15nne245085 0.0 1009117
18 august, thu
thu1823:00+8ne22718 0.0 101116
02:00+6ene228698 0.0 101111
05:00+6ene228813 0.0 101116
08:00+10e22698 0.0 1011198
11:00+16ese1149100 0.0 10091055
14:00+19se113711 0.0 10071912
17:00+17w4446100 0.0 1006985
20:00+14nnw5960100 0.0 1007344
19 august, fri
fri1923:00+13nnw5965100 0.0 1009404
02:00+9wnw4881100 0.0 1010221
05:00+6wnw22933 0.0 101119
08:00+10wnw127315 0.0 1011217
11:00+15sw344988 0.0 10101473
14:00+18sw334188 0.0 10071761
17:00+19sw223590 0.0 10062037
20:00+13wnw2254100 0.0 100611
20 august, sat
sat2023:00+11nne2262100 0.0 100713
02:00+7ne22775 0.0 100721
05:00+6nne228122 0.0 100715
08:00+11nnw126198 0.0 1007242
11:00+16nw5547100 0.0 10071265
14:00+17nnw6644100 0.1 10061875
17:00+13nw81179100 1.9 1008828
20:00+10wnw7129199 2.3 1011723
21 august, sun
sun2123:00+9wnw61195100 0.8 1014597
02:00+9wnw51096100 1.7 1015542
05:00+8wnw5996100 0.3 1015474
08:00+9wnw4793100 0.3 1016487
11:00+12wnw457791 0.1 1015772
14:00+14nw456497 0.8 10141155
17:00+16wnw454893 0.3 10131638
20:00+12nnw22679 0.4 101413